STARLINK-30372, 57789

Orbit data source: Space-Track

STARLINK-30372, 57789 is a payload satellite owned by SpaceX/Seattle (US) in LEO that was launched on Mon, 04 Sep 2023 UTC via an FALCON 9 launch vehicle from the Air Force Eastern Test Range (AFETR). Payload-class satellites include a variety of spacecraft equipped with specific instruments for various scientific and technological missions. These include communications satellites like Starlink; space stations such as the ISS; scientific satellites like the Hubble; Earth observation satellites from companies like Planet Labs, Umbra, and HawkEye 360; GPS; miniature CubeSats for education and research; and military/defense satellites.

Loading next visibility...
Identifier
57789, 2023-134U
Orbit
LEO
Country
Flag of USUS
Related business
Manufacturer
SpaceX/Seattle
Mission
Operational Commercial Communications
Bus & Motor
STARLINK V2M, Unknown motor
Mass
730 kg wet, ~700 kg dry
Launch date (UTC)
2023-09-04 (2 years ago)
Launch vehicle
FALCON 9
Launch site
Air Force Eastern Test Range (AFETR)
Object type
Payload
Rocket body
Debris
Shape & HBR
Box + 2 Pan, 17.7 m
Radar Cross Section
33.884 m², Large (>1 m²)

Expand to show TLE details & history
Last TLE update: 18 hours ago

TLE from 18 hours ago
0 STARLINK-30372
1 57789U 23134U   25346.62956017 -.00012250  00000-0 -43561-3 0  9999
2 57789  42.9986 210.0454 0001332 242.1462 117.9255 15.27636707127556
Epoch: 2025-12-12T15:06Z
TLE epoch observation values (Epoch: 2025-12-12T15:06:33.998Z)
Latitude
-0.00001°
Longitude
-98.16471°
Altitude
483.083 km
Speed
7.625 km/s
True Right ascension
14h 00m 10s
True Declination
0° 00' 00"
Sunlit
Object was in daylight at epoch
Visualization orbit readout
Latitude
Unknown
Longitude
Unknown
Altitude
Unknown
Speed
Unknown
Apparent Right ascension
Unknown
Apparent Declination
Unknown
Sunlit
N/A
Visualization observer readout
Local Sidereal Time
07:26:11
Azimuth
Unknown
Elevation
Unknown
Doppler factor
Unknown
Orbital elements
Apogee altitude
485.739 km
Perigee altitude
483.911 km
Semi-major axis
6,862.962 km
Eccentricity
0.00013
Inclination
42.9986°
RAAN
210.0454°
Arg. of periapsis
242.1462°
True anomaly
117.93899°
Mean anomaly
117.9255°
Eccentric anomaly
117.93224°
Mean motion
3.81747 °/min
Orbital period
94.3 mins
BSTAR
-0.00043561
Loading maneuver chart data...
Computing Atmospheric mass density...
Loading historical data...
Loading historical data...
Loading historical data...
Loading historical data...
Loading historical data...
Loading historical data...
Loading historical data...

Documentation

Showing up to 5 results
|